Weather History for Hailey, ID

Change the Weather History Date:

Thursday, July 25, 2013

  Actual Average Record
Temperature  
Mean Temperature 74 °F -  
Max Temperature 89 °F 84 °F 95 °F (2000)
Min Temperature 60 °F 53 °F 42 °F (2014)
Cooling Degree Days 10    
Growing Degree Days 24 (Base 50)    
Moisture  
Dew Point 38 °F    
Average Humidity 30    
Maximum Humidity 45    
Minimum Humidity 16    
Precipitation  
Precipitation 0.00 in - - ()
Sea Level Pressure  
Sea Level Pressure 30.16 in    
Wind  
Wind Speed 9 mph (NW)    
Max Wind Speed 15 mph    
Max Gust Speed 17 mph    
Visibility 10 miles    
Events      
Averages and records for this station are not official NWS values.
T = Trace of Precipitation, MM = Missing Value Source: NWS Daily Summary

Daily Weather History Graph

Daily Weather History Graph

Search for Another Location

Airport:

Trip Planner

Search our weather history database for the weather conditions in past years. The results will help you decide how hot, cold, wet, or windy it might be!

Date:

Astronomy

Jul. 25, 2013 Rise Set
Actual Time 6:19 AM MDT 9:07 PM MDT
Civil Twilight 5:46 AM MDT 9:40 PM MDT
Nautical Twilight 5:04 AM MDT 10:22 PM MDT
Astronomical Twilight 4:15 AM MDT 11:10 PM MDT
Moon 10:40 PM MDT (7/25) 10:02 AM MDT (7/25)
Length of Visible Light 15h 53m
Length of Day
14h 47m
Waning Gibbous, 88% of the Moon is Illuminated
Jul 25
Waning Gibbous
Jul 29
Last Quarter
Aug 6
New
Aug 14
First Quarter
Aug 20
Full

Hourly Weather History & Observations

Time (MDT) Temp. Dew Point Humidity Pressure Visibility Wind Dir Wind Speed Gust Speed Precip Events Conditions
12:15 AM 69.8 °F 39.2 °F 33% 30.14 in 10.0 mi NNW 10.4 mph - N/A   Clear
12:35 AM 68.0 °F 39.2 °F 35% 30.14 in 10.0 mi NW 10.4 mph - N/A   Clear
12:55 AM 68.0 °F 39.2 °F 35% 30.14 in 10.0 mi NW 9.2 mph - N/A   Clear
1:15 AM 68.0 °F 39.2 °F 35% 30.14 in 10.0 mi WNW 9.2 mph - N/A   Clear
1:35 AM 68.0 °F 39.2 °F 35% 30.13 in 10.0 mi NW 8.1 mph - N/A   Clear
1:55 AM 68.0 °F 39.2 °F 35% 30.13 in 10.0 mi NW 6.9 mph - N/A   Clear
2:15 AM 68.0 °F 37.4 °F 33% 30.13 in 10.0 mi NNW 8.1 mph - N/A   Clear
2:35 AM 68.0 °F 39.2 °F 35% 30.12 in 10.0 mi NNW 10.4 mph - N/A   Clear
2:55 AM 68.0 °F 37.4 °F 33% 30.12 in 10.0 mi NNW 9.2 mph - N/A   Clear
3:15 AM 69.8 °F 37.4 °F 31% 30.12 in 10.0 mi NW 12.7 mph - N/A   Clear
3:35 AM 68.0 °F 37.4 °F 33% 30.12 in 10.0 mi NW 15.0 mph - N/A   Clear
3:55 AM 68.0 °F 37.4 °F 33% 30.12 in 10.0 mi NW 10.4 mph - N/A   Clear
4:15 AM 68.0 °F 37.4 °F 33% 30.12 in 10.0 mi NW 9.2 mph - N/A   Clear
4:35 AM 64.4 °F 37.4 °F 37% 30.13 in 10.0 mi North 5.8 mph - N/A   Clear
4:55 AM 66.2 °F 35.6 °F 32% 30.13 in 10.0 mi NNW 6.9 mph - N/A   Clear
5:15 AM 64.4 °F 35.6 °F 34% 30.14 in 10.0 mi NNW 9.2 mph - N/A   Clear
5:35 AM 66.2 °F 35.6 °F 32% 30.14 in 10.0 mi NNW 10.4 mph - N/A   Clear
5:55 AM 64.4 °F 33.8 °F 32% 30.14 in 10.0 mi NNW 8.1 mph - N/A   Clear
6:15 AM 62.6 °F 35.6 °F 37% 30.15 in 10.0 mi NW 5.8 mph - N/A   Clear
6:35 AM 62.6 °F 37.4 °F 39% 30.16 in 10.0 mi WNW 3.5 mph - N/A   Clear
6:47 AM 62.6 °F 37.4 °F 39% 30.17 in 10.0 mi Calm Calm - N/A   Scattered Clouds
6:55 AM 60.8 °F 35.6 °F 39% 30.16 in 10.0 mi Calm Calm - N/A   Clear
7:47 AM 60.8 °F 39.2 °F 45% 30.19 in 10.0 mi NW 5.8 mph - N/A   Scattered Clouds
8:47 AM 64.4 °F 39.2 °F 40% 30.21 in 10.0 mi WNW 5.8 mph - N/A   Partly Cloudy
9:47 AM 73.4 °F 39.2 °F 29% 30.22 in 10.0 mi NNW 5.8 mph - N/A   Partly Cloudy
10:47 AM 80.6 °F 33.8 °F 18% 30.22 in 10.0 mi ESE 8.1 mph - N/A   Scattered Clouds
11:55 AM 82.4 °F 37.4 °F 20% 30.22 in 10.0 mi ESE 8.1 mph - N/A   Scattered Clouds
12:47 PM 84.2 °F 39.2 °F 20% 30.21 in 10.0 mi SE 8.1 mph - N/A   Scattered Clouds
1:47 PM 86.0 °F 39.2 °F 19% 30.20 in 10.0 mi SE 10.4 mph - N/A   Scattered Clouds
2:47 PM 89.6 °F 39.2 °F 17% 30.20 in 10.0 mi SE 10.4 mph 17.3 mph N/A   Scattered Clouds
3:47 PM 87.8 °F 39.2 °F 18% 30.19 in 10.0 mi SE 8.1 mph - N/A   Scattered Clouds
4:47 PM 89.6 °F 37.4 °F 16% 30.17 in 10.0 mi SE 5.8 mph - N/A   Scattered Clouds
5:47 PM 86.0 °F 42.8 °F 22% 30.16 in 10.0 mi SE 5.8 mph - N/A   Scattered Clouds
6:47 PM 84.2 °F 48.2 °F 29% 30.15 in 10.0 mi SE 5.8 mph - N/A   Scattered Clouds
7:47 PM 84.2 °F 42.8 °F 23% 30.15 in 10.0 mi South 5.8 mph - N/A   Scattered Clouds
8:47 PM 80.6 °F 42.8 °F 26% 30.16 in 10.0 mi SSW 4.6 mph - N/A   Partly Cloudy
9:47 PM 78.8 °F 39.2 °F 24% 30.19 in 10.0 mi WNW 9.2 mph - N/A   Partly Cloudy
10:47 PM 78.8 °F 37.4 °F 23% 30.21 in 10.0 mi WNW 8.1 mph - N/A   Partly Cloudy
11:15 PM 73.4 °F 41.0 °F 31% 30.21 in 10.0 mi NW 8.1 mph - N/A   Clear
11:35 PM 73.4 °F 37.4 °F 27% 30.22 in 10.0 mi NW 10.4 mph - N/A   Clear
11:55 PM 69.8 °F 39.2 °F 33% 30.22 in 10.0 mi WNW 9.2 mph - N/A   Clear